Maribor, Slovenia

10:01 AM CET on February 23, 2018 (GMT +0100)
Maribor

Weather History for LJMB - February, 2013

Change the Weather History Date:

Thursday, February 21, 2013

  Actual Average Record
Temperature  
Mean Temperature 28 °F -  
Max Temperature 32 °F - - ()
Min Temperature 23 °F - - ()
Degree Days  
Heating Degree Days 38    
Moisture  
Dew Point 22 °F    
Average Humidity 77    
Maximum Humidity 100    
Minimum Humidity 45    
Precipitation  
Precipitation 0.00 in - - ()
Sea Level Pressure  
Sea Level Pressure 30.03 in    
Wind  
Wind Speed 3 mph ()    
Max Wind Speed 9 mph    
Max Gust Speed -    
Visibility 4.8 miles    
Events Fog , Snow    
T = Trace of Precipitation, MM = Missing Value Source: Averaged Metar Reports

Daily Weather History Graph

Daily Weather History Graph

Search for Another Location

Airport or City:

Trip Planner

Search our weather history database for the weather conditions in past years. The results will help you decide how hot, cold, wet, or windy it might be!

Date:

Astronomy

Feb. 21, 2013 Rise Set
Actual Time 6:50 AM CET 5:31 PM CET
Civil Twilight 6:20 AM CET 6:02 PM CET
Nautical Twilight 5:45 AM CET 6:37 PM CET
Astronomical Twilight 5:10 AM CET 7:12 PM CET
Moon 1:20 PM CET (2/21) 3:53 AM CET (2/21)
Length of Visible Light 11h 42m
Length of Day
10h 40m
Waxing Gibbous, 82% of the Moon is Illuminated
Feb 21
Waxing Gibbous
Feb 25
Full
Mar 4
Last Quarter
Mar 11
New
Mar 19
First Quarter

Hourly Weather History & Observations

Time (CET) Temp. Windchill Dew Point Humidity Pressure Visibility Wind Dir Wind Speed Gust Speed Precip Events Conditions
12:00 AM 26.6 °F - 26.6 °F 100% 30.06 in 0.0 mi Calm Calm - N/A Fog , Snow Light Snow
12:30 AM 24.8 °F - 23.0 °F 93% 30.06 in 0.0 mi NNW 2.3 mph - N/A Fog , Snow Light Snow
1:00 AM 25 °F - 24 °F 95% 30.15 in - North 2.2 mph - -  
1:30 AM 26.6 °F - 24.8 °F 93% 30.06 in 0.3 mi Calm Calm - N/A Fog , Snow Light Snow
2:00 AM 26.6 °F - 24.8 °F 93% 30.06 in 0.4 mi Calm Calm - N/A Fog , Snow Light Snow
2:30 AM 26.6 °F - 24.8 °F 93% 30.06 in 0.8 mi Calm Calm - N/A Snow Light Snow Showers
3:00 AM 24.8 °F - 24.8 °F 100% 30.06 in 0.7 mi Calm Calm - N/A Snow Light Snow Showers
3:30 AM 24.8 °F - 24.8 °F 100% 30.06 in 0.6 mi Calm Calm - N/A Fog , Snow Light Snow Showers
4:00 AM 26 °F - 25 °F 93% 30.13 in - Calm Calm - -  
4:00 AM 26.6 °F - 24.8 °F 93% 30.06 in 0.7 mi Calm Calm - N/A Snow Light Snow Showers
4:30 AM 26.6 °F - 24.8 °F 93% 30.06 in - Calm Calm - N/A   Mist
5:00 AM 26.6 °F - 21.2 °F 80% 30.06 in 5.6 mi Calm Calm - N/A   Unknown
5:30 AM 26.6 °F - 23.0 °F 86% 30.06 in 5.6 mi Calm Calm - N/A   Unknown
6:00 AM 26.6 °F - 21.2 °F 80% 30.06 in - Variable 2.3 mph - N/A   Clear
6:30 AM 26.6 °F - 21.2 °F 80% 30.06 in - Variable 2.3 mph - N/A   Clear
7:00 AM 26 °F - 20 °F 68% 30.13 in 11 mi North 2.2 mph - -   Partly Cloudy
7:00 AM 24.8 °F - 19.4 °F 80% 30.06 in 6.2 mi North 1.2 mph - N/A   Scattered Clouds
7:30 AM 24.8 °F - 19.4 °F 80% 30.06 in 6.2 mi North 1.2 mph - N/A   Scattered Clouds
8:00 AM 26.6 °F - 21.2 °F 80% 30.06 in 6.2 mi Variable 2.3 mph - N/A   Mostly Cloudy
8:30 AM 26.6 °F - 21.2 °F 80% 30.06 in 6.2 mi Variable 2.3 mph - N/A   Mostly Cloudy
9:00 AM 28.4 °F - 21.2 °F 74% 30.06 in 6.2 mi WNW 2.3 mph - N/A   Scattered Clouds
9:30 AM 30.2 °F - 21.2 °F 69% 30.06 in 6.2 mi Variable 2.3 mph - N/A   Scattered Clouds
10:00 AM 30 °F - 20 °F 55% 30.13 in 11 mi East 4.5 mph - -   Partly Cloudy
10:00 AM 30.2 °F 25.4 °F 19.4 °F 64% 30.06 in 6.2 mi East 4.6 mph - N/A   Scattered Clouds
10:30 AM 30.2 °F 25.4 °F 19.4 °F 64% 30.06 in 6.2 mi East 4.6 mph - N/A   Scattered Clouds
11:00 AM 30.2 °F 25.4 °F 19.4 °F 64% 30.06 in 6.2 mi ENE 4.6 mph - N/A   Scattered Clouds
11:30 AM 30.2 °F 25.4 °F 19.4 °F 64% 30.06 in 6.2 mi ENE 4.6 mph - N/A   Scattered Clouds
12:00 PM 30.2 °F 25.4 °F 19.4 °F 64% 30.04 in 6.2 mi NNE 4.6 mph - N/A   Scattered Clouds
12:30 PM 32.0 °F 27.5 °F 19.4 °F 60% 30.04 in 6.2 mi NNE 4.6 mph - N/A   Scattered Clouds
1:00 PM 32 °F - 20 °F 49% 30.07 in 12 mi ENE 8.9 mph - -   Mostly Cloudy
1:00 PM 32.0 °F 25.6 °F 21.2 °F 64% 30.01 in 6.2 mi ENE 6.9 mph - N/A   Mostly Cloudy
1:30 PM 32.0 °F 26.4 °F 19.4 °F 60% 30.01 in 6.2 mi North 5.8 mph - N/A   Mostly Cloudy
2:00 PM 32.0 °F 26.4 °F 19.4 °F 60% 30.01 in 6.2 mi North 5.8 mph - N/A   Mostly Cloudy
2:30 PM 32.0 °F 25.6 °F 21.2 °F 64% 29.98 in 6.2 mi North 6.9 mph - N/A   Mostly Cloudy
3:00 PM 32.0 °F 26.4 °F 17.6 °F 55% 29.98 in 6.2 mi NNE 5.8 mph - N/A   Mostly Cloudy
4:00 PM 32 °F - 19 °F 45% 30.03 in 12 mi NNE 6.7 mph - -   Mostly Cloudy
4:00 PM 32.0 °F 27.5 °F 17.6 °F 55% 29.98 in 6.2 mi NNE 4.6 mph - N/A   Mostly Cloudy
4:30 PM 30.2 °F 24.3 °F 19.4 °F 64% 29.98 in 6.2 mi ENE 5.8 mph - N/A Snow Light Snow
5:00 PM 30.2 °F 25.4 °F 19.4 °F 64% 29.98 in 6.2 mi ENE 4.6 mph - N/A Snow Light Snow
5:30 PM 30.2 °F - 19.4 °F 64% 29.98 in 6.2 mi Variable 2.3 mph - N/A Snow Light Snow
6:00 PM 30.2 °F 23.4 °F 21.2 °F 69% 29.98 in 6.2 mi NE 6.9 mph - N/A Snow Light Snow
6:30 PM 30.2 °F 24.3 °F 21.2 °F 69% 29.98 in 6.2 mi East 5.8 mph - N/A Snow Light Snow
7:00 PM 29 °F - 23 °F 71% 30.04 in 7 mi East 6.7 mph - - Snow Light Snow
7:00 PM 28.4 °F 22.2 °F 23.0 °F 80% 29.98 in 6.2 mi East 5.8 mph - N/A Snow Light Snow
7:30 PM 28.4 °F 24.6 °F 24.8 °F 86% 29.98 in 1.9 mi NE 3.5 mph - N/A Snow Light Snow
8:00 PM 26.6 °F 20.0 °F 24.8 °F 93% 29.98 in 1.9 mi NNE 5.8 mph - N/A Snow Light Snow
8:30 PM 26.6 °F 20.0 °F 23.0 °F 86% 29.98 in 1.9 mi NNE 5.8 mph - N/A Snow Light Snow
9:00 PM 26.6 °F 19.1 °F 24.8 °F 93% 29.98 in 1.9 mi North 6.9 mph - N/A Snow Light Snow
9:30 PM 26.6 °F 19.1 °F 23.0 °F 86% 29.98 in 1.9 mi NNE 6.9 mph - N/A Snow Light Snow
10:00 PM 26 °F - 24 °F 89% 30.04 in 2 mi North 6.7 mph - - Snow Light Snow
10:00 PM 26.6 °F 20.0 °F 24.8 °F 93% 29.98 in 1.9 mi North 5.8 mph - N/A Snow Light Snow
10:30 PM 26.6 °F 18.2 °F 24.8 °F 93% 29.95 in 1.8 mi North 8.1 mph - N/A Snow Light Snow
11:00 PM 26.6 °F 20.0 °F 24.8 °F 93% 29.95 in 0.9 mi North 5.8 mph - N/A Snow Light Snow
11:30 PM 26.6 °F 19.1 °F 23.0 °F 86% 29.95 in - North 6.9 mph - N/A Snow Light Snow